SWA2966 KFLL-KMKE

Flight info

Callsign SWA2966
Flight time 2h 52m
Altitude 34000
Route HROCK2 KPASA Q118 KAILL IIU VINNE BRAVE EXARR
Aircraft B738/M-SADE2E3GIJ4RWZ/LB1D1

Departure

Time 2026-05-03 21:43
Airport Fort Lauderdale Hollywood International Airport (KFLL)

Arrival

Time 2026-05-04 00:36
Airport General Mitchell International Airport (KMKE)
Time Latitude Longitude Altitude Speed Heading
2026-05-03 20:31 26.07307 -80.13749 15 ft 0 kts 257°
2026-05-03 20:49 26.07308 -80.13744 15 ft 3 kts 257°
2026-05-03 20:50 26.07313 -80.13720 15 ft 4 kts 243°
2026-05-03 20:50 26.07329 -80.13705 16 ft 4 kts 177°
2026-05-03 20:50 26.07354 -80.13708 18 ft 2 kts 180°
2026-05-03 20:50 26.07380 -80.13708 15 ft 4 kts 180°
2026-05-03 20:51 26.07407 -80.13707 14 ft 4 kts 179°
2026-05-03 20:51 26.07430 -80.13713 18 ft 4 kts 128°
2026-05-03 20:51 26.07434 -80.13730 15 ft 4 kts 38°
2026-05-03 20:51 26.07413 -80.13735 17 ft 4 kts
2026-05-03 20:52 26.07405 -80.13735 16 ft 0 kts
2026-05-03 20:55 26.07407 -80.13735 18 ft 1 kts
2026-05-03 20:55 26.07429 -80.13735 19 ft 5 kts 359°
2026-05-03 20:55 26.07466 -80.13760 15 ft 9 kts 289°
2026-05-03 20:55 26.07470 -80.13842 15 ft 12 kts 275°
2026-05-03 20:56 26.07485 -80.13947 15 ft 15 kts 272°
2026-05-03 20:56 26.07484 -80.14073 15 ft 18 kts 269°
2026-05-03 20:56 26.07486 -80.14167 15 ft 4 kts 271°
2026-05-03 20:56 26.07486 -80.14211 15 ft 7 kts 270°
2026-05-03 20:57 26.07485 -80.14281 15 ft 11 kts 269°
2026-05-03 20:57 26.07486 -80.14376 15 ft 14 kts 271°
2026-05-03 20:57 26.07486 -80.14409 15 ft 1 kts 270°
2026-05-03 20:57 26.07487 -80.14429 15 ft 0 kts 271°
2026-05-03 21:09 26.07487 -80.14430 15 ft 1 kts 271°
2026-05-03 21:09 26.07487 -80.14457 15 ft 6 kts 271°
2026-05-03 21:10 26.07488 -80.14517 15 ft 10 kts 270°
2026-05-03 21:10 26.07488 -80.14608 15 ft 14 kts 270°
2026-05-03 21:10 26.07489 -80.14728 15 ft 17 kts 270°
2026-05-03 21:10 26.07488 -80.14876 15 ft 21 kts 270°
2026-05-03 21:11 26.07489 -80.15039 15 ft 21 kts 270°
2026-05-03 21:11 26.07489 -80.15197 15 ft 20 kts 270°
2026-05-03 21:11 26.07490 -80.15350 15 ft 19 kts 270°
2026-05-03 21:11 26.07491 -80.15497 15 ft 19 kts 271°
2026-05-03 21:12 26.07492 -80.15639 15 ft 18 kts 271°
2026-05-03 21:12 26.07493 -80.15775 15 ft 17 kts 270°
2026-05-03 21:12 26.07492 -80.15905 15 ft 16 kts 270°
2026-05-03 21:12 26.07493 -80.16029 15 ft 16 kts 270°
2026-05-03 21:13 26.07495 -80.16148 15 ft 15 kts 271°
2026-05-03 21:13 26.07495 -80.16260 15 ft 14 kts 270°
2026-05-03 21:13 26.07496 -80.16364 15 ft 10 kts 270°
2026-05-03 21:13 26.07496 -80.16373 15 ft 0 kts 270°
2026-05-03 21:16 26.07496 -80.16391 15 ft 4 kts 271°
2026-05-03 21:16 26.07496 -80.16422 15 ft 0 kts 270°
2026-05-03 21:16 26.07496 -80.16428 15 ft 2 kts 270°
2026-05-03 21:17 26.07497 -80.16449 15 ft 4 kts 270°
2026-05-03 21:17 26.07497 -80.16471 15 ft 5 kts 270°
2026-05-03 21:17 26.07497 -80.16474 15 ft 0 kts 270°
2026-05-03 21:23 26.07497 -80.16480 15 ft 3 kts 270°
2026-05-03 21:23 26.07497 -80.16525 15 ft 8 kts 270°
2026-05-03 21:24 26.07497 -80.16538 15 ft 0 kts 270°
2026-05-03 21:30 26.07496 -80.16559 15 ft 5 kts 268°
2026-05-03 21:30 26.07496 -80.16572 15 ft 0 kts 271°
2026-05-03 21:31 26.07496 -80.16574 15 ft 1 kts 271°
2026-05-03 21:32 26.07497 -80.16590 15 ft 3 kts 272°
2026-05-03 21:32 26.07505 -80.16622 15 ft 5 kts 301°
2026-05-03 21:32 26.07509 -80.16629 16 ft 0 kts 311°
2026-05-03 21:33 26.07512 -80.16631 16 ft 2 kts 317°
2026-05-03 21:33 26.07533 -80.16640 15 ft 5 kts 349°
2026-05-03 21:34 26.07555 -80.16643 15 ft 0 kts 356°
2026-05-03 21:37 26.07564 -80.16643 15 ft 5 kts 358°
2026-05-03 21:37 26.07589 -80.16644 16 ft 0 kts 359°
2026-05-03 21:42 26.07605 -80.16644 16 ft 6 kts 360°
2026-05-03 21:42 26.07676 -80.16638 17 ft 14 kts 31°
2026-05-03 21:42 26.07696 -80.16510 18 ft 36 kts 90°
2026-05-03 21:43 26.07692 -80.15957 18 ft 106 kts 90°
2026-05-03 21:43 26.07688 -80.14899 19 ft 165 kts 88°
2026-05-03 21:43 26.07686 -80.13531 510 ft 178 kts 87°
2026-05-03 21:43 26.07700 -80.12085 1065 ft 192 kts 90°
2026-05-03 21:44 26.07718 -80.11045 1345 ft 209 kts 88°
2026-05-03 21:44 26.07960 -80.09387 1498 ft 229 kts 65°
2026-05-03 21:44 26.08955 -80.07973 1677 ft 239 kts 43°
2026-05-03 21:44 26.10166 -80.06627 1887 ft 250 kts 36°
2026-05-03 21:45 26.11749 -80.05809 2109 ft 260 kts 13°
2026-05-03 21:45 26.13512 -80.05199 2448 ft 274 kts 15°
2026-05-03 21:45 26.15352 -80.04748 3143 ft 268 kts 355°
2026-05-03 21:45 26.17152 -80.05198 3687 ft 266 kts 335°
2026-05-03 21:46 26.18909 -80.05900 3891 ft 266 kts 336°
2026-05-03 21:46 26.20666 -80.06589 3996 ft 271 kts 335°
2026-05-03 21:46 26.22248 -80.07662 3988 ft 264 kts 307°
2026-05-03 21:46 26.23182 -80.09353 4095 ft 255 kts 289°
2026-05-03 21:47 26.23822 -80.11213 4599 ft 257 kts 288°
2026-05-03 21:47 26.24470 -80.13070 5254 ft 258 kts 288°
2026-05-03 21:47 26.25130 -80.14941 5805 ft 262 kts 288°
2026-05-03 21:47 26.25768 -80.16825 6388 ft 264 kts 285°
2026-05-03 21:48 26.26313 -80.18813 6973 ft 265 kts 283°
2026-05-03 21:48 26.26817 -80.20760 7587 ft 266 kts 283°
2026-05-03 21:48 26.27329 -80.22748 8187 ft 268 kts 283°
2026-05-03 21:48 26.27849 -80.24755 8802 ft 271 kts 283°
2026-05-03 21:49 26.28375 -80.26782 9449 ft 273 kts 283°
2026-05-03 21:49 26.28907 -80.28819 10081 ft 275 kts 283°
2026-05-03 21:49 26.29455 -80.30910 10359 ft 291 kts 283°
2026-05-03 21:49 26.30043 -80.33149 10518 ft 311 kts 284°
2026-05-03 21:50 26.30670 -80.35530 10649 ft 329 kts 284°
2026-05-03 21:50 26.31333 -80.38037 10866 ft 343 kts 284°
2026-05-03 21:50 26.32014 -80.40607 11330 ft 348 kts 284°
2026-05-03 21:50 26.32701 -80.43197 11930 ft 349 kts 284°
2026-05-03 21:51 26.33389 -80.45792 12536 ft 350 kts 284°
2026-05-03 21:51 26.34079 -80.48400 12966 ft 352 kts 284°
2026-05-03 21:51 26.34772 -80.51018 12985 ft 352 kts 284°
2026-05-03 21:51 26.35463 -80.53637 12995 ft 353 kts 284°
2026-05-03 21:52 26.36152 -80.56250 13001 ft 350 kts 284°
2026-05-03 21:52 26.36836 -80.58846 12994 ft 348 kts 284°
2026-05-03 21:52 26.37517 -80.61435 12994 ft 347 kts 284°
2026-05-03 21:52 26.38194 -80.64011 12997 ft 346 kts 284°
2026-05-03 21:53 26.38871 -80.66589 12998 ft 347 kts 284°
2026-05-03 21:53 26.39549 -80.69172 12995 ft 347 kts 284°
2026-05-03 21:53 26.40343 -80.71718 12987 ft 351 kts 295°
2026-05-03 21:53 26.41776 -80.73941 13010 ft 356 kts 308°
2026-05-03 21:54 26.43474 -80.75969 12999 ft 358 kts 310°
2026-05-03 21:54 26.45199 -80.77986 12995 ft 359 kts 310°
2026-05-03 21:54 26.46918 -80.80021 12992 ft 360 kts 309°
2026-05-03 21:54 26.48625 -80.82069 12990 ft 360 kts 309°
2026-05-03 21:55 26.50323 -80.84121 12992 ft 360 kts 309°
2026-05-03 21:55 26.52108 -80.86097 12991 ft 362 kts 315°
2026-05-03 21:55 26.54045 -80.87903 12998 ft 363 kts 317°
2026-05-03 21:55 26.56026 -80.89649 12995 ft 363 kts 318°
2026-05-03 21:56 26.58015 -80.91389 13015 ft 363 kts 318°
2026-05-03 21:56 26.59991 -80.93130 13008 ft 361 kts 317°
2026-05-03 21:56 26.61954 -80.94878 12997 ft 360 kts 317°
2026-05-03 21:56 26.63891 -80.96617 13209 ft 355 kts 317°
2026-05-03 21:57 26.65827 -80.98369 13646 ft 361 kts 317°
2026-05-03 21:57 26.67779 -81.00143 14213 ft 362 kts 316°
2026-05-03 21:57 26.69711 -81.01900 14763 ft 363 kts 316°
2026-05-03 21:57 26.71700 -81.03712 15308 ft 366 kts 316°
2026-05-03 21:58 26.73653 -81.05493 15821 ft 368 kts 316°
2026-05-03 21:58 26.75648 -81.07314 16341 ft 371 kts 315°
2026-05-03 21:58 26.77650 -81.09142 16861 ft 373 kts 315°
2026-05-03 21:58 26.79684 -81.11000 17266 ft 379 kts 315°
2026-05-03 21:59 26.81744 -81.12883 17688 ft 384 kts 315°
2026-05-03 21:59 26.83815 -81.14775 18184 ft 386 kts 315°
2026-05-03 21:59 26.85898 -81.16679 18630 ft 388 kts 315°
2026-05-03 21:59 26.87994 -81.18595 19052 ft 390 kts 314°
2026-05-03 22:00 26.90100 -81.20522 19496 ft 392 kts 314°
2026-05-03 22:00 26.92190 -81.22433 19956 ft 392 kts 314°
2026-05-03 22:00 26.94312 -81.24378 20361 ft 395 kts 314°
2026-05-03 22:00 26.96444 -81.26334 20730 ft 398 kts 314°
2026-05-03 22:01 26.98593 -81.28305 21108 ft 400 kts 314°
2026-05-03 22:01 27.00752 -81.30286 21475 ft 402 kts 314°
2026-05-03 22:01 27.02925 -81.32281 21838 ft 405 kts 314°
2026-05-03 22:01 27.05151 -81.34243 22180 ft 412 kts 318°
2026-05-03 22:02 27.07624 -81.35926 22529 ft 419 kts 323°
2026-05-03 22:02 27.10194 -81.37502 22887 ft 422 kts 324°
2026-05-03 22:02 27.12793 -81.39072 23219 ft 425 kts 324°
2026-05-03 22:02 27.15395 -81.40663 23546 ft 427 kts 323°
2026-05-03 22:03 27.17998 -81.42282 23820 ft 429 kts 323°
2026-05-03 22:03 27.20600 -81.43923 24098 ft 430 kts 323°
2026-05-03 22:03 27.23211 -81.45582 24413 ft 431 kts 322°
2026-05-03 22:03 27.25827 -81.47248 24696 ft 433 kts 322°
2026-05-03 22:04 27.28450 -81.48921 24960 ft 434 kts 322°
2026-05-03 22:04 27.31081 -81.50598 25220 ft 436 kts 323°
2026-05-03 22:04 27.33695 -81.52259 25485 ft 438 kts 323°
2026-05-03 22:04 27.36502 -81.53788 25743 ft 446 kts 328°
2026-05-03 22:05 27.39388 -81.55122 25992 ft 450 kts 330°
2026-05-03 22:05 27.42320 -81.56392 26239 ft 452 kts 331°
2026-05-03 22:05 27.45266 -81.57657 26479 ft 454 kts 330°
2026-05-03 22:05 27.48219 -81.58943 26733 ft 455 kts 330°
2026-05-03 22:06 27.51170 -81.60252 26972 ft 456 kts 330°
2026-05-03 22:06 27.54081 -81.61564 27205 ft 458 kts 330°
2026-05-03 22:06 27.57079 -81.62929 27438 ft 459 kts 329°
2026-05-03 22:06 27.60003 -81.64267 27668 ft 461 kts 329°
2026-05-03 22:07 27.62976 -81.65630 27904 ft 462 kts 329°
2026-05-03 22:07 27.65949 -81.66994 28240 ft 461 kts 329°
2026-05-03 22:07 27.68908 -81.68350 28613 ft 459 kts 329°
2026-05-03 22:07 27.71865 -81.69705 28968 ft 458 kts 329°
2026-05-03 22:08 27.74821 -81.71060 29287 ft 457 kts 329°
2026-05-03 22:08 27.77765 -81.72412 29603 ft 457 kts 329°
2026-05-03 22:08 27.80708 -81.73764 29956 ft 456 kts 329°
2026-05-03 22:08 27.83623 -81.75105 30574 ft 447 kts 328°
2026-05-03 22:09 27.86471 -81.76420 31073 ft 442 kts 328°
2026-05-03 22:09 27.89341 -81.77746 31126 ft 448 kts 328°
2026-05-03 22:10 27.98061 -81.81762 31763 ft 451 kts 328°
2026-05-03 22:10 28.00962 -81.83098 32023 ft 450 kts 327°
2026-05-03 22:10 28.03869 -81.84441 32228 ft 452 kts 327°
2026-05-03 22:10 28.06783 -81.85793 32441 ft 453 kts 327°
2026-05-03 22:11 28.09699 -81.87145 32686 ft 453 kts 327°
2026-05-03 22:11 28.12613 -81.88492 32942 ft 452 kts 327°
2026-05-03 22:11 28.15522 -81.89836 33312 ft 450 kts 326°
2026-05-03 22:11 28.18360 -81.91250 33601 ft 439 kts 319°
2026-05-03 22:12 28.20907 -81.93098 33776 ft 431 kts 314°
2026-05-03 22:12 28.23332 -81.95076 33961 ft 430 kts 312°
2026-05-03 22:12 28.25748 -81.97089 34098 ft 431 kts 312°
2026-05-03 22:13 28.30641 -82.01094 34103 ft 436 kts 313°
2026-05-03 22:13 28.35644 -82.05085 34110 ft 443 kts 314°
2026-05-03 22:14 28.40711 -82.09094 34104 ft 445 kts 314°
2026-05-03 22:14 28.45756 -82.13093 34122 ft 445 kts 314°
2026-05-03 22:15 28.50830 -82.17125 34110 ft 444 kts 313°
2026-05-03 22:15 28.55876 -82.21139 34106 ft 441 kts 313°
2026-05-03 22:16 28.60895 -82.25139 34111 ft 439 kts 313°
2026-05-03 22:16 28.65893 -82.29130 34109 ft 438 kts 313°
2026-05-03 22:17 28.70883 -82.33118 34118 ft 437 kts 313°
2026-05-03 22:17 28.75857 -82.37098 34157 ft 436 kts 313°
2026-05-03 22:18 28.80829 -82.41082 34132 ft 435 kts 313°
2026-05-03 22:18 28.85775 -82.45047 34124 ft 434 kts 313°
2026-05-03 22:19 28.90714 -82.49013 34117 ft 434 kts 313°
2026-05-03 22:19 28.95618 -82.52956 34126 ft 433 kts 313°
2026-05-03 22:20 29.00535 -82.56914 34123 ft 432 kts 312°
2026-05-03 22:20 29.05480 -82.60899 34170 ft 432 kts 312°
2026-05-03 22:21 29.10390 -82.64861 34141 ft 432 kts 312°
2026-05-03 22:21 29.15297 -82.68824 34125 ft 431 kts 312°
2026-05-03 22:22 29.20160 -82.72756 34124 ft 431 kts 312°
2026-05-03 22:22 29.25052 -82.76717 34128 ft 430 kts 312°
2026-05-03 22:23 29.29939 -82.80679 34141 ft 430 kts 311°
2026-05-03 22:23 29.34831 -82.84650 34201 ft 430 kts 311°
2026-05-03 22:24 29.39712 -82.88616 34135 ft 429 kts 311°
2026-05-03 22:24 29.44562 -82.92562 34133 ft 426 kts 311°
2026-05-03 22:25 29.49416 -82.96484 34135 ft 425 kts 312°
2026-05-03 22:25 29.54625 -82.99933 34150 ft 445 kts 323°
2026-05-03 22:26 29.60355 -83.02594 34151 ft 447 kts 324°
2026-05-03 22:26 29.66130 -83.05231 34183 ft 446 kts 324°
2026-05-03 22:27 29.71870 -83.07921 34155 ft 445 kts 323°
2026-05-03 22:27 29.77585 -83.10638 34145 ft 444 kts 323°
2026-05-03 22:28 29.83279 -83.13357 34149 ft 443 kts 323°
2026-05-03 22:28 29.88968 -83.16076 34167 ft 442 kts 323°
2026-05-03 22:29 29.94644 -83.18790 34204 ft 441 kts 323°
2026-05-03 22:29 30.00303 -83.21497 34163 ft 439 kts 323°
2026-05-03 22:30 30.04987 -83.23739 34150 ft 437 kts 323°
2026-05-03 22:30 30.10589 -83.26425 34154 ft 435 kts 323°
2026-05-03 22:31 30.16167 -83.29105 34165 ft 433 kts 323°
2026-05-03 22:31 30.21730 -83.31783 34161 ft 432 kts 323°
2026-05-03 22:32 30.27282 -83.34457 34169 ft 432 kts 323°
2026-05-03 22:32 30.32826 -83.37129 34162 ft 432 kts 323°
2026-05-03 22:33 30.38367 -83.39806 34167 ft 431 kts 323°
2026-05-03 22:33 30.43865 -83.42466 34170 ft 431 kts 323°
2026-05-03 22:34 30.49401 -83.45153 34174 ft 431 kts 323°
2026-05-03 22:34 30.54941 -83.47844 34168 ft 432 kts 323°
2026-05-03 22:35 30.60489 -83.50544 34168 ft 433 kts 323°
2026-05-03 22:35 30.66042 -83.53247 34174 ft 433 kts 323°
2026-05-03 22:36 30.71605 -83.55958 34175 ft 434 kts 323°
2026-05-03 22:36 30.77171 -83.58674 34177 ft 434 kts 323°
2026-05-03 22:37 30.82744 -83.61398 34210 ft 435 kts 323°
2026-05-03 22:37 30.88317 -83.64131 34187 ft 434 kts 323°
2026-05-03 22:38 30.93849 -83.66834 34174 ft 434 kts 323°
2026-05-03 22:38 30.99410 -83.69557 34177 ft 433 kts 323°
2026-05-03 22:39 31.04951 -83.72284 34175 ft 432 kts 323°
2026-05-03 22:39 31.10492 -83.75014 34211 ft 432 kts 323°
2026-05-03 22:40 31.16032 -83.77743 34197 ft 432 kts 323°
2026-05-03 22:40 31.21570 -83.80473 34186 ft 431 kts 323°
2026-05-03 22:41 31.27096 -83.83203 34183 ft 431 kts 323°
2026-05-03 22:41 31.32622 -83.85934 34184 ft 431 kts 323°
2026-05-03 22:42 31.38149 -83.88670 34227 ft 431 kts 323°
2026-05-03 22:42 31.43673 -83.91411 34217 ft 431 kts 323°
2026-05-03 22:43 31.49195 -83.94149 34203 ft 430 kts 323°
2026-05-03 22:43 31.54937 -83.96465 34189 ft 452 kts 334°
2026-05-03 22:44 31.61142 -83.97818 34191 ft 455 kts 335°
2026-05-03 22:44 31.67342 -83.99092 34224 ft 454 kts 335°
2026-05-03 22:45 31.73560 -84.00426 34190 ft 453 kts 335°
2026-05-03 22:45 31.79755 -84.01796 34181 ft 453 kts 334°
2026-05-03 22:46 31.85939 -84.03177 34186 ft 452 kts 334°
2026-05-03 22:46 31.92111 -84.04559 34169 ft 451 kts 334°
2026-05-03 22:47 31.98288 -84.05944 34170 ft 452 kts 335°
2026-05-03 22:47 32.04471 -84.07330 34165 ft 452 kts 335°
2026-05-03 22:48 32.10649 -84.08715 34157 ft 452 kts 335°
2026-05-03 22:48 32.16813 -84.10099 34157 ft 451 kts 335°
2026-05-03 22:49 32.22991 -84.11489 34202 ft 451 kts 335°
2026-05-03 22:49 32.29167 -84.12883 34166 ft 452 kts 336°
2026-05-03 22:50 32.35357 -84.14266 34180 ft 452 kts 336°
2026-05-03 22:50 32.41488 -84.15654 34169 ft 452 kts 335°
2026-05-03 22:51 32.47678 -84.17052 34171 ft 453 kts 336°
2026-05-03 22:51 32.53877 -84.18450 34172 ft 454 kts 336°
2026-05-03 22:52 32.60079 -84.19858 34163 ft 454 kts 336°
2026-05-03 22:52 32.66278 -84.21268 34172 ft 454 kts 336°
2026-05-03 22:53 32.72480 -84.22679 34182 ft 453 kts 336°
2026-05-03 22:53 32.78688 -84.24064 34204 ft 457 kts 338°
2026-05-03 22:54 32.84899 -84.25433 34199 ft 452 kts 337°
2026-05-03 22:54 32.91073 -84.26889 34208 ft 452 kts 337°
2026-05-03 22:55 32.97251 -84.28332 34205 ft 452 kts 337°
2026-05-03 22:55 33.03449 -84.29681 34242 ft 458 kts 343°
2026-05-03 22:56 33.09662 -84.30938 34180 ft 444 kts 334°
2026-05-03 22:56 33.15672 -84.32711 34203 ft 448 kts 338°
2026-05-03 22:57 33.21786 -84.34076 34201 ft 450 kts 339°
2026-05-03 22:57 33.27952 -84.35415 34216 ft 449 kts 339°
2026-05-03 22:58 33.34089 -84.36805 34221 ft 448 kts 338°
2026-05-03 22:58 33.40214 -84.38222 34194 ft 448 kts 338°
2026-05-03 22:59 33.46347 -84.39646 34176 ft 448 kts 338°
2026-05-03 22:59 33.52467 -84.41068 34182 ft 448 kts 338°
2026-05-03 23:00 33.58593 -84.42493 34224 ft 448 kts 338°
2026-05-03 23:00 33.64702 -84.43904 34195 ft 447 kts 339°
2026-05-03 23:01 33.70827 -84.45240 34179 ft 447 kts 339°
2026-05-03 23:01 33.76908 -84.46554 34194 ft 446 kts 339°
2026-05-03 23:02 33.83010 -84.47888 34199 ft 445 kts 339°
2026-05-03 23:02 33.89110 -84.49230 34182 ft 444 kts 339°
2026-05-03 23:03 33.95183 -84.50569 34171 ft 443 kts 339°
2026-05-03 23:03 34.01254 -84.51908 34202 ft 443 kts 339°
2026-05-03 23:04 34.07289 -84.53298 34217 ft 441 kts 338°
2026-05-03 23:04 34.13323 -84.54699 34186 ft 441 kts 336°
2026-05-03 23:05 34.19259 -84.56342 34193 ft 442 kts 340°
2026-05-03 23:05 34.25248 -84.57834 34200 ft 439 kts 339°
2026-05-03 23:06 34.31217 -84.59286 34196 ft 441 kts 339°
2026-05-03 23:06 34.37244 -84.60744 34221 ft 441 kts 339°
2026-05-03 23:07 34.43276 -84.62231 34196 ft 442 kts 339°
2026-05-03 23:07 34.49296 -84.63732 34203 ft 442 kts 339°
2026-05-03 23:08 34.55335 -84.65237 34205 ft 443 kts 339°
2026-05-03 23:08 34.61377 -84.66741 34205 ft 443 kts 339°
2026-05-03 23:09 34.67420 -84.68254 34216 ft 443 kts 340°
2026-05-03 23:09 34.73448 -84.69756 34210 ft 442 kts 340°
2026-05-03 23:10 34.79461 -84.71255 34249 ft 441 kts 340°
2026-05-03 23:10 34.85432 -84.72750 34224 ft 440 kts 340°
2026-05-03 23:11 34.91430 -84.74255 34216 ft 439 kts 340°
2026-05-03 23:11 34.97405 -84.75755 34202 ft 437 kts 340°
2026-05-03 23:12 35.03344 -84.77248 34194 ft 435 kts 340°
2026-05-03 23:12 35.09257 -84.78738 34190 ft 433 kts 340°
2026-05-03 23:13 35.15151 -84.80225 34227 ft 432 kts 340°
2026-05-03 23:13 35.21035 -84.81713 34214 ft 431 kts 340°
2026-05-03 23:14 35.26862 -84.83188 34213 ft 430 kts 340°
2026-05-03 23:14 35.32714 -84.84672 34208 ft 429 kts 340°
2026-05-03 23:15 35.38564 -84.86157 34208 ft 429 kts 340°
2026-05-03 23:15 35.44402 -84.87642 34215 ft 429 kts 340°
2026-05-03 23:16 35.50246 -84.89129 34204 ft 428 kts 340°
2026-05-03 23:16 35.56079 -84.90616 34209 ft 427 kts 340°
2026-05-03 23:17 35.61898 -84.92100 34219 ft 426 kts 340°
2026-05-03 23:17 35.66729 -84.93337 34246 ft 426 kts 340°
2026-05-03 23:18 35.73478 -84.95065 34217 ft 425 kts 340°
2026-05-03 23:18 35.79260 -84.96547 34224 ft 424 kts 340°
2026-05-03 23:19 35.85029 -84.98029 34236 ft 423 kts 340°
2026-05-03 23:19 35.89858 -84.99271 34222 ft 423 kts 340°
2026-05-03 23:20 35.95580 -85.00745 34223 ft 422 kts 340°
2026-05-03 23:20 36.01336 -85.02230 34219 ft 422 kts 340°
2026-05-03 23:21 36.07091 -85.03717 34220 ft 422 kts 340°
2026-05-03 23:21 36.12850 -85.05185 34217 ft 424 kts 341°
2026-05-03 23:22 36.21443 -85.07439 34232 ft 419 kts 338°
2026-05-03 23:22 36.27155 -85.09006 34219 ft 421 kts 340°
2026-05-03 23:23 36.32896 -85.10455 34222 ft 420 kts 340°
2026-05-03 23:23 36.38623 -85.11915 34214 ft 420 kts 340°
2026-05-03 23:24 36.44343 -85.13395 34230 ft 419 kts 340°
2026-05-03 23:24 36.50008 -85.14870 34237 ft 417 kts 340°
2026-05-03 23:25 36.55695 -85.16359 34226 ft 417 kts 340°
2026-05-03 23:25 36.61371 -85.17849 34228 ft 417 kts 340°
2026-05-03 23:26 36.67048 -85.19340 34253 ft 417 kts 340°
2026-05-03 23:26 36.72726 -85.20832 34240 ft 416 kts 340°
2026-05-03 23:27 36.78391 -85.22322 34227 ft 416 kts 340°
2026-05-03 23:27 36.84053 -85.23815 34227 ft 415 kts 340°
2026-05-03 23:28 36.89712 -85.25309 34229 ft 415 kts 340°
2026-05-03 23:28 36.95363 -85.26802 34237 ft 415 kts 341°
2026-05-03 23:29 37.01006 -85.28296 34222 ft 414 kts 341°
2026-05-03 23:29 37.06605 -85.29782 34220 ft 413 kts 341°
2026-05-03 23:30 37.12231 -85.31277 34218 ft 413 kts 340°
2026-05-03 23:30 37.17854 -85.32774 34234 ft 413 kts 341°
2026-05-03 23:31 37.23477 -85.34271 34217 ft 412 kts 341°
2026-05-03 23:31 37.29079 -85.35765 34214 ft 411 kts 341°
2026-05-03 23:32 37.34675 -85.37260 34212 ft 410 kts 341°
2026-05-03 23:32 37.40260 -85.38756 34247 ft 410 kts 341°
2026-05-03 23:33 37.45832 -85.40249 34216 ft 408 kts 341°
2026-05-03 23:33 37.51382 -85.41739 34205 ft 407 kts 341°
2026-05-03 23:34 37.56923 -85.43229 34194 ft 407 kts 341°
2026-05-03 23:34 37.62485 -85.44729 34212 ft 410 kts 341°
2026-05-03 23:35 37.68073 -85.46236 34219 ft 411 kts 342°
2026-05-03 23:35 37.73666 -85.47746 34206 ft 411 kts 342°
2026-05-03 23:36 37.79225 -85.49249 34204 ft 410 kts 342°
2026-05-03 23:36 37.84803 -85.50760 34206 ft 409 kts 342°
2026-05-03 23:37 37.90361 -85.52268 34215 ft 408 kts 342°
2026-05-03 23:37 37.95898 -85.53773 34206 ft 405 kts 342°
2026-05-03 23:38 38.01409 -85.55264 34206 ft 404 kts 342°
2026-05-03 23:38 38.06891 -85.56758 34211 ft 402 kts 342°
2026-05-03 23:39 38.12247 -85.58597 34222 ft 395 kts 333°
2026-05-03 23:39 38.17330 -85.61221 34215 ft 394 kts 333°
2026-05-03 23:40 38.22369 -85.63820 34210 ft 393 kts 333°
2026-05-03 23:40 38.27435 -85.66422 34212 ft 392 kts 333°
2026-05-03 23:41 38.32495 -85.69017 34202 ft 392 kts 333°
2026-05-03 23:41 38.37560 -85.71618 34205 ft 392 kts 333°
2026-05-03 23:42 38.42629 -85.74223 34204 ft 393 kts 333°
2026-05-03 23:42 38.47708 -85.76838 34200 ft 394 kts 333°
2026-05-03 23:43 38.52796 -85.79462 34201 ft 394 kts 333°
2026-05-03 23:43 38.57888 -85.82096 34206 ft 395 kts 333°
2026-05-03 23:44 38.62947 -85.84713 34197 ft 395 kts 333°
2026-05-03 23:44 38.68039 -85.87349 34178 ft 394 kts 333°
2026-05-03 23:45 38.73110 -85.89988 34182 ft 393 kts 333°
2026-05-03 23:45 38.78178 -85.92619 34176 ft 392 kts 333°
2026-05-03 23:46 38.83230 -85.95250 34204 ft 392 kts 333°
2026-05-03 23:46 38.88279 -85.97886 34179 ft 391 kts 333°
2026-05-03 23:47 38.93296 -86.00505 34171 ft 391 kts 333°
2026-05-03 23:47 38.98333 -86.03129 34177 ft 390 kts 333°
2026-05-03 23:48 39.03364 -86.05761 34177 ft 390 kts 333°
2026-05-03 23:48 39.08384 -86.08399 34183 ft 390 kts 333°
2026-05-03 23:49 39.13408 -86.11037 34178 ft 390 kts 333°
2026-05-03 23:49 39.18439 -86.13678 34178 ft 390 kts 333°
2026-05-03 23:50 39.22606 -86.15873 34180 ft 390 kts 333°
2026-05-03 23:50 39.28471 -86.18974 34159 ft 390 kts 333°
2026-05-03 23:51 39.33498 -86.21632 34171 ft 391 kts 332°
2026-05-03 23:51 39.38535 -86.24298 34154 ft 392 kts 332°
2026-05-03 23:52 39.43552 -86.26957 34167 ft 393 kts 332°
2026-05-03 23:52 39.48614 -86.29642 34153 ft 393 kts 333°
2026-05-03 23:53 39.53684 -86.32334 34170 ft 394 kts 332°
2026-05-03 23:53 39.58768 -86.35037 34162 ft 395 kts 333°
2026-05-03 23:54 39.63841 -86.37742 34154 ft 394 kts 332°
2026-05-03 23:54 39.68910 -86.40457 34153 ft 394 kts 332°
2026-05-03 23:55 39.73980 -86.43173 34157 ft 394 kts 332°
2026-05-03 23:55 39.79046 -86.45889 34162 ft 394 kts 332°
2026-05-03 23:56 39.84116 -86.48610 34158 ft 393 kts 332°
2026-05-03 23:56 39.89172 -86.51328 34156 ft 393 kts 332°
2026-05-03 23:57 39.94228 -86.54051 34147 ft 393 kts 332°
2026-05-03 23:57 39.99288 -86.56780 34140 ft 393 kts 332°
2026-05-03 23:58 40.04317 -86.59497 34138 ft 394 kts 332°
2026-05-03 23:58 40.09384 -86.62239 34124 ft 394 kts 332°
2026-05-03 23:59 40.14458 -86.64990 34121 ft 395 kts 332°
2026-05-03 23:59 40.19538 -86.67747 34122 ft 395 kts 332°
2026-05-04 00:00 40.24623 -86.70513 34128 ft 396 kts 332°
2026-05-04 00:00 40.29715 -86.73286 34121 ft 396 kts 332°
2026-05-04 00:01 40.34799 -86.76059 34122 ft 396 kts 332°
2026-05-04 00:01 40.39888 -86.78840 34127 ft 396 kts 332°
2026-05-04 00:02 40.44967 -86.81620 34144 ft 395 kts 332°
2026-05-04 00:02 40.50042 -86.84402 34132 ft 395 kts 332°
2026-05-04 00:03 40.55077 -86.87166 34124 ft 394 kts 332°
2026-05-04 00:03 40.60134 -86.89946 34103 ft 393 kts 332°
2026-05-04 00:04 40.65180 -86.92723 34098 ft 393 kts 332°
2026-05-04 00:04 40.70221 -86.95509 34076 ft 392 kts 332°
2026-05-04 00:05 40.75247 -86.98288 34093 ft 392 kts 332°
2026-05-04 00:05 40.80257 -87.01045 34101 ft 392 kts 332°
2026-05-04 00:06 40.85294 -87.03842 34108 ft 393 kts 332°
2026-05-04 00:06 40.90331 -87.06646 34119 ft 394 kts 332°
2026-05-04 00:07 40.95375 -87.09461 34115 ft 393 kts 332°
2026-05-04 00:07 40.99563 -87.11788 34109 ft 392 kts 332°
2026-05-04 00:08 41.04680 -87.14454 34104 ft 396 kts 338°
2026-05-04 00:08 41.10175 -87.15658 34138 ft 400 kts 347°
2026-05-04 00:09 41.12939 -87.15974 33639 ft 397 kts 348°
2026-05-04 00:09 41.15674 -87.16275 33072 ft 393 kts 348°
2026-05-04 00:09 41.18379 -87.16572 32702 ft 387 kts 347°
2026-05-04 00:09 41.21048 -87.16871 32244 ft 383 kts 347°
2026-05-04 00:10 41.23684 -87.17172 31799 ft 378 kts 347°
2026-05-04 00:10 41.26261 -87.17472 31383 ft 374 kts 347°
2026-05-04 00:10 41.28842 -87.17775 30972 ft 371 kts 347°
2026-05-04 00:10 41.31397 -87.18077 30587 ft 367 kts 347°
2026-05-04 00:11 41.33963 -87.18382 30174 ft 364 kts 347°
2026-05-04 00:11 41.36444 -87.18677 29705 ft 361 kts 347°
2026-05-04 00:11 41.38929 -87.18973 29298 ft 357 kts 347°
2026-05-04 00:11 41.41389 -87.19266 28882 ft 353 kts 347°
2026-05-04 00:12 41.43822 -87.19556 28470 ft 350 kts 347°
2026-05-04 00:12 41.46233 -87.19844 28072 ft 347 kts 347°
2026-05-04 00:12 41.48627 -87.20130 27665 ft 344 kts 347°
2026-05-04 00:12 41.51001 -87.20414 27266 ft 341 kts 347°
2026-05-04 00:13 41.53357 -87.20696 26896 ft 339 kts 347°
2026-05-04 00:13 41.55708 -87.20978 26491 ft 338 kts 347°
2026-05-04 00:13 41.58045 -87.21255 26091 ft 336 kts 347°
2026-05-04 00:13 41.60370 -87.21529 25705 ft 334 kts 347°
2026-05-04 00:14 41.62684 -87.21801 25325 ft 332 kts 347°
2026-05-04 00:14 41.64976 -87.22073 24947 ft 331 kts 347°
2026-05-04 00:14 41.67267 -87.22351 24568 ft 329 kts 347°
2026-05-04 00:14 41.69548 -87.22628 24199 ft 328 kts 347°
2026-05-04 00:15 41.71814 -87.22904 23827 ft 327 kts 347°
2026-05-04 00:15 41.74079 -87.23177 23428 ft 326 kts 347°
2026-05-04 00:15 41.76340 -87.23450 23010 ft 325 kts 347°
2026-05-04 00:15 41.78589 -87.23720 22630 ft 323 kts 347°
2026-05-04 00:16 41.80824 -87.23990 22245 ft 321 kts 348°
2026-05-04 00:16 41.83044 -87.24259 21869 ft 320 kts 348°
2026-05-04 00:16 41.85260 -87.24527 21509 ft 319 kts 348°
2026-05-04 00:16 41.87469 -87.24795 21121 ft 319 kts 348°
2026-05-04 00:17 41.89666 -87.25063 20776 ft 325 kts 349°
2026-05-04 00:17 41.91959 -87.25343 20387 ft 335 kts 349°
2026-05-04 00:17 41.94288 -87.25625 19990 ft 336 kts 349°
2026-05-04 00:17 41.96606 -87.25902 19618 ft 333 kts 350°
2026-05-04 00:18 41.98907 -87.26177 19228 ft 331 kts 350°
2026-05-04 00:18 42.01191 -87.26451 18843 ft 329 kts 350°
2026-05-04 00:18 42.03468 -87.26726 18472 ft 327 kts 351°
2026-05-04 00:18 42.05726 -87.27000 18074 ft 326 kts 351°
2026-05-04 00:19 42.07976 -87.27273 17668 ft 324 kts 351°
2026-05-04 00:19 42.10211 -87.27545 17285 ft 321 kts 351°
2026-05-04 00:19 42.12426 -87.27814 16924 ft 318 kts 351°
2026-05-04 00:19 42.14620 -87.28081 16655 ft 313 kts 351°
2026-05-04 00:20 42.16770 -87.28342 16432 ft 308 kts 351°
2026-05-04 00:20 42.18907 -87.28604 16114 ft 309 kts 351°
2026-05-04 00:20 42.21054 -87.28868 15752 ft 313 kts 351°
2026-05-04 00:20 42.23257 -87.29141 15418 ft 322 kts 351°
2026-05-04 00:21 42.25510 -87.29419 15036 ft 326 kts 351°
2026-05-04 00:21 42.27761 -87.29694 14662 ft 324 kts 351°
2026-05-04 00:21 42.30003 -87.29966 14294 ft 322 kts 351°
2026-05-04 00:21 42.32232 -87.30238 13930 ft 320 kts 351°
2026-05-04 00:22 42.34446 -87.30509 13542 ft 319 kts 351°
2026-05-04 00:22 42.36649 -87.30779 13154 ft 316 kts 351°
2026-05-04 00:22 42.38833 -87.31047 12813 ft 314 kts 351°
2026-05-04 00:22 42.40999 -87.31315 12455 ft 312 kts 350°
2026-05-04 00:23 42.43152 -87.31580 12102 ft 309 kts 351°
2026-05-04 00:23 42.45276 -87.31841 11743 ft 303 kts 351°
2026-05-04 00:23 42.47348 -87.32095 11403 ft 296 kts 351°
2026-05-04 00:23 42.49364 -87.32343 11084 ft 293 kts 350°
2026-05-04 00:24 42.51387 -87.32594 10775 ft 290 kts 351°
2026-05-04 00:24 42.53382 -87.32842 10672 ft 290 kts 350°
2026-05-04 00:24 42.55438 -87.33098 10556 ft 301 kts 351°
2026-05-04 00:24 42.57517 -87.33356 10406 ft 296 kts 351°
2026-05-04 00:25 42.59533 -87.33605 10269 ft 286 kts 351°
2026-05-04 00:25 42.61483 -87.33845 10048 ft 279 kts 350°
2026-05-04 00:25 42.63404 -87.34086 9677 ft 276 kts 350°
2026-05-04 00:25 42.65323 -87.34326 9310 ft 277 kts 350°
2026-05-04 00:26 42.67236 -87.34563 9043 ft 275 kts 351°
2026-05-04 00:26 42.69139 -87.34798 8738 ft 274 kts 350°
2026-05-04 00:26 42.70956 -87.35411 8415 ft 267 kts 332°
2026-05-04 00:26 42.72626 -87.36498 8156 ft 264 kts 329°
2026-05-04 00:27 42.74282 -87.37583 7858 ft 265 kts 330°
2026-05-04 00:27 42.75945 -87.38659 7574 ft 264 kts 330°
2026-05-04 00:27 42.77606 -87.39722 7289 ft 264 kts 331°
2026-05-04 00:27 42.79272 -87.40778 7254 ft 265 kts 330°
2026-05-04 00:28 42.80941 -87.41831 7179 ft 263 kts 330°
2026-05-04 00:28 42.82583 -87.42867 6940 ft 258 kts 330°
2026-05-04 00:28 42.84219 -87.43912 6433 ft 260 kts 327°
2026-05-04 00:28 42.85509 -87.45485 5964 ft 250 kts 300°
2026-05-04 00:29 42.86404 -87.47482 5587 ft 246 kts 297°
2026-05-04 00:29 42.87277 -87.49504 5185 ft 244 kts 296°
2026-05-04 00:29 42.88122 -87.51462 4802 ft 241 kts 296°
2026-05-04 00:29 42.88974 -87.53434 4426 ft 239 kts 296°
2026-05-04 00:30 42.89806 -87.55350 4364 ft 231 kts 296°
2026-05-04 00:30 42.90628 -87.57239 4151 ft 232 kts 296°
2026-05-04 00:30 42.91455 -87.59142 3848 ft 233 kts 296°
2026-05-04 00:30 42.92281 -87.61037 3611 ft 231 kts 296°
2026-05-04 00:31 42.93103 -87.62919 3393 ft 231 kts 295°
2026-05-04 00:31 42.93910 -87.64774 3320 ft 223 kts 295°
2026-05-04 00:31 42.94680 -87.66546 3293 ft 211 kts 295°
2026-05-04 00:31 42.95411 -87.68222 3282 ft 199 kts 295°
2026-05-04 00:32 42.96096 -87.69792 3298 ft 184 kts 294°
2026-05-04 00:32 42.96723 -87.71227 3280 ft 169 kts 294°
2026-05-04 00:32 42.97304 -87.72599 3232 ft 168 kts 289°
2026-05-04 00:32 42.97684 -87.74078 3049 ft 161 kts 272°
2026-05-04 00:33 42.97723 -87.75575 2863 ft 155 kts 262°
2026-05-04 00:33 42.97181 -87.78320 2532 ft 148 kts 252°
2026-05-04 00:33 42.96868 -87.79630 2327 ft 140 kts 252°
2026-05-04 00:34 42.96577 -87.80823 2184 ft 129 kts 251°
2026-05-04 00:34 42.96294 -87.81983 1995 ft 129 kts 249°
2026-05-04 00:34 42.96009 -87.83151 1822 ft 130 kts 248°
2026-05-04 00:34 42.95725 -87.84315 1646 ft 129 kts 249°
2026-05-04 00:35 42.95433 -87.85500 1478 ft 133 kts 248°
2026-05-04 00:35 42.95144 -87.86705 1195 ft 134 kts 251°
2026-05-04 00:35 42.94851 -87.87930 924 ft 138 kts 246°
2026-05-04 00:35 42.94542 -87.89183 697 ft 139 kts 246°
2026-05-04 00:36 42.94268 -87.90287 685 ft 96 kts 255°
2026-05-04 00:36 42.94130 -87.90868 687 ft 30 kts 253°
2026-05-04 00:36 42.94104 -87.91109 682 ft 21 kts 302°
2026-05-04 00:36 42.94173 -87.91136 687 ft 9 kts 41°
2026-05-04 00:37 42.94197 -87.91063 687 ft 8 kts 71°
2026-05-04 00:37 42.94216 -87.90989 682 ft 8 kts 72°
2026-05-04 00:37 42.94234 -87.90916 682 ft 8 kts 71°
2026-05-04 00:37 42.94251 -87.90846 685 ft 8 kts 72°
2026-05-04 00:38 42.94269 -87.90779 687 ft 7 kts 71°
2026-05-04 00:38 42.94285 -87.90711 687 ft 8 kts 73°
2026-05-04 00:38 42.94306 -87.90619 684 ft 12 kts 72°
2026-05-04 00:38 42.94338 -87.90486 687 ft 17 kts 72°
2026-05-04 00:39 42.94381 -87.90311 683 ft 22 kts 69°
2026-05-04 00:39 42.94433 -87.90100 684 ft 25 kts 70°
2026-05-04 00:39 42.94504 -87.89964 683 ft 19 kts 31°
2026-05-04 00:39 42.94583 -87.89806 684 ft 22 kts 57°
2026-05-04 00:40 42.94727 -87.89729 683 ft 25 kts
2026-05-04 00:40 42.94906 -87.89709 685 ft 27 kts 350°
2026-05-04 00:40 42.95047 -87.89825 684 ft 18 kts 329°
2026-05-04 00:40 42.95062 -87.89919 682 ft 8 kts 260°
2026-05-04 00:41 42.95057 -87.89952 687 ft 1 kts 257°
2026-05-04 00:41 42.95057 -87.89953 687 ft 0 kts 257°